Location: Grand Lay
(47.3253°N, 0.9468°E)
Time: 14:06:00
(UTC+00:00)

Cosmos 2228 Rocket - Pass Details

Date: 18 January 2026
Orbit: 611 x 647 km, 82.5° (Epoch: 9 February)

Event Time Altitude Azimuth Distance (km) Brightness Sun altitude
Rises 06:44:04 0° 343° (NNW) 2,896 6.1 -8.9°
Reaches altitude 10° 06:46:26 10° 335° (NNW) 1,983 5.2 -8.5°
Maximum altitude 06:50:26 36° 269° (W) 975 3.6 -7.9°
Drops below altitude 10° 06:54:25 10° 202° (SSW) 1,964 5.7 -7.3°
Sets 06:56:44 0° 194° (SSW) 2,864 6.6 -6.9°
